Chatham, MA

6:11 PM EDT on March 23, 2017 (GMT -0400)
Chatham Municipal

Weather History for KCQX - April, 2013

Change the Weather History Date:

Saturday, April 20, 2013

  Actual Average Record
Temperature  
Mean Temperature 52 °F -  
Max Temperature 61 °F 51 °F 68 °F (2002)
Min Temperature 43 °F 38 °F 33 °F (1974)
Degree Days  
Heating Degree Days 14    
Growing Degree Days 2 (Base 50)    
Moisture  
Dew Point 50 °F    
Average Humidity 92    
Maximum Humidity 100    
Minimum Humidity 66    
Precipitation  
Precipitation 0.45 in - - ()
Sea Level Pressure  
Sea Level Pressure 29.85 in    
Wind  
Wind Speed 13 mph (SW)    
Max Wind Speed 20 mph    
Max Gust Speed 37 mph    
Visibility 6 miles    
Events Rain    
Averages and records for this station are not official NWS values.
T = Trace of Precipitation, MM = Missing Value Source: NWS Daily Summary

Daily Weather History Graph

Daily Weather History Graph

Search for Another Location

Airport or City:

Trip Planner

Search our weather history database for the weather conditions in past years. The results will help you decide how hot, cold, wet, or windy it might be!

Date:

Astronomy

Apr. 20, 2013 Rise Set
Actual Time 5:51 AM EDT 7:26 PM EDT
Civil Twilight 5:22 AM EDT 7:55 PM EDT
Nautical Twilight 4:47 AM EDT 8:31 PM EDT
Astronomical Twilight 4:09 AM EDT 9:09 PM EDT
Moon 2:02 PM EDT (4/20) 2:44 AM EDT (4/20)
Length of Visible Light 14h 33m
Length of Day
13h 34m
Waxing Gibbous, 71% of the Moon is Illuminated
Apr 20
Waxing Gibbous
Apr 25
Full
May 2
Last Quarter
May 9
New
May 18
First Quarter

Hourly Weather History & Observations

Time (EDT) Temp. Windchill Dew Point Humidity Pressure Visibility Wind Dir Wind Speed Gust Speed Precip Events Conditions
12:21 AM 60.8 °F - 59.0 °F 94% 29.79 in 6.0 mi SSW 17.3 mph 33.4 mph N/A   Overcast
12:52 AM 60.1 °F - 59.0 °F 96% 29.79 in 3.0 mi SSW 19.6 mph 34.5 mph 0.01 in Rain Rain
1:34 AM 60.8 °F - 59.0 °F 94% 29.77 in 6.0 mi SSW 18.4 mph 36.8 mph 0.00 in Rain Light Rain
1:52 AM 60.1 °F - 57.9 °F 93% 29.76 in 5.0 mi SSW 15.0 mph 35.7 mph 0.00 in   Overcast
2:40 AM 57.2 °F - 57.2 °F 100% 29.74 in 5.0 mi SSW 18.4 mph 31.1 mph 0.00 in   Overcast
2:52 AM 57.9 °F - 57.0 °F 97% 29.74 in 4.0 mi SSW 18.4 mph 33.4 mph 0.00 in   Overcast
3:43 AM 57.2 °F - 57.2 °F 100% 29.72 in 1.8 mi SSW 13.8 mph 29.9 mph 0.10 in Rain Rain
3:52 AM 57.9 °F - 57.0 °F 97% 29.73 in 1.5 mi WSW 13.8 mph 31.1 mph 0.13 in Rain Rain
3:59 AM 57.2 °F - 55.4 °F 94% 29.73 in 3.0 mi SW 17.3 mph 28.8 mph 0.00 in Rain Light Rain
4:52 AM 55.9 °F - 55.0 °F 97% 29.73 in 3.0 mi SW 12.7 mph 26.5 mph 0.03 in Rain Light Rain
5:52 AM 55.9 °F - 55.0 °F 97% 29.73 in 2.5 mi SW 11.5 mph 26.5 mph 0.00 in Rain Light Rain
6:06 AM 55.4 °F - 55.4 °F 100% 29.73 in 5.0 mi SW 16.1 mph 27.6 mph 0.00 in Rain Light Rain
6:29 AM 55.4 °F - 55.4 °F 100% 29.73 in 2.5 mi SSW 12.7 mph 20.7 mph 0.01 in Rain Light Rain
6:43 AM 55.4 °F - 55.4 °F 100% 29.73 in 4.0 mi SSW 12.7 mph 25.3 mph 0.02 in Rain Light Rain
6:52 AM 55.0 °F - 55.0 °F 100% 29.73 in 4.0 mi SSW 13.8 mph 24.2 mph 0.02 in Rain Light Rain
7:09 AM 55.4 °F - 55.4 °F 100% 29.73 in 1.8 mi SSW 13.8 mph 25.3 mph 0.00 in Rain Light Rain
7:52 AM 54.0 °F - 54.0 °F 100% 29.75 in 1.5 mi SW 11.5 mph 17.3 mph 0.02 in Rain Light Rain
8:08 AM 53.6 °F - 53.6 °F 100% 29.75 in 2.0 mi SW 10.4 mph 19.6 mph 0.00 in Rain Light Rain
8:34 AM 53.6 °F - 53.6 °F 100% 29.77 in 5.0 mi SW 6.9 mph 19.6 mph 0.01 in Rain Light Rain
8:52 AM 53.1 °F - 53.1 °F 100% 29.78 in 4.0 mi Variable 6.9 mph - 0.02 in Rain Light Rain
9:04 AM 53.6 °F - 51.8 °F 94% 29.80 in 5.0 mi NW 8.1 mph 19.6 mph 0.01 in Rain Light Rain
9:11 AM 51.8 °F - 50.0 °F 94% 29.79 in 5.0 mi Variable 5.8 mph - 0.02 in Rain Rain
9:52 AM 48.9 °F - 48.0 °F 97% 29.83 in 3.0 mi NW 9.2 mph 18.4 mph 0.08 in Rain Rain
10:26 AM 48.2 °F - 46.4 °F 93% 29.87 in 5.0 mi Variable 5.8 mph - 0.05 in Rain Rain
10:52 AM 46.9 °F - 45.0 °F 93% 29.89 in 4.0 mi Variable 4.6 mph - 0.08 in Rain Rain
11:52 AM 48.9 °F - 46.9 °F 93% 29.91 in 10.0 mi WNW 3.5 mph - 0.06 in Rain Light Rain
12:06 PM 50.0 °F - 48.2 °F 94% 29.90 in 10.0 mi Calm Calm - 0.00 in   Overcast
12:15 PM 51.8 °F - 48.2 °F 88% 29.91 in 10.0 mi WSW 3.5 mph - 0.00 in   Overcast
12:52 PM 52.0 °F - 48.9 °F 89% 29.90 in 10.0 mi SW 4.6 mph - 0.00 in   Mostly Cloudy
1:52 PM 51.1 °F - 45.0 °F 80% 29.92 in 10.0 mi SW 10.4 mph 18.4 mph N/A   Scattered Clouds
2:52 PM 52.0 °F - 45.0 °F 77% 29.93 in 10.0 mi SW 5.8 mph - N/A   Partly Cloudy
3:52 PM 51.1 °F - 44.1 °F 77% 29.95 in 10.0 mi SW 8.1 mph 19.6 mph N/A   Clear
4:52 PM 52.0 °F - 44.1 °F 74% 29.97 in 10.0 mi SW 9.2 mph 19.6 mph N/A   Clear
5:52 PM 50.0 °F - 44.1 °F 80% 30.00 in 10.0 mi SW 12.7 mph 19.6 mph N/A   Clear
6:52 PM 48.9 °F - 44.1 °F 83% 30.01 in 10.0 mi WSW 8.1 mph - N/A   Clear
7:52 PM 48.0 °F - 42.1 °F 80% 30.04 in 10.0 mi Variable 4.6 mph - N/A   Partly Cloudy
8:52 PM 45.0 °F - 39.9 °F 82% 30.10 in 10.0 mi Calm Calm - N/A   Clear
9:52 PM 43.0 °F - 39.9 °F 89% 30.12 in 10.0 mi Calm Calm - N/A   Clear
10:52 PM 45.0 °F 42.6 °F 39.9 °F 82% 30.16 in 10.0 mi WNW 4.6 mph - N/A   Clear
11:52 PM 46.9 °F - 36.0 °F 66% 30.19 in 10.0 mi NNW 5.8 mph - N/A   Clear